Regional Weather Roundup
Issued by NWS

Home | Current Version | Previous Version | Graphics & Text | Print | Product List | Glossary On
Versions: 1 2 3 4 5 6 7 8 9 10 11 12 13 14 15 16 17 18 19 20 21 22 23 24 25 26 27 28 29 30 31 32 33 34 35 36 37 38 39 40 41 42 43 44 45 46 47 48 49 50
000
ASUS43 KMKX 040759
RWRWI

WISCONSIN REGIONAL WEATHER ROUNDUP
NATIONAL WEATHER SERVICE MILWAUKEE/SULLIVAN WI
200 AM CST WED MAR 04 2015

NOTE: "FAIR" INDICATES FEW OR NO CLOUDS BELOW 12,000 FEET WITH NO
SIGNIFICANT WEATHER AND/OR OBSTRUCTIONS TO VISIBILITY.

WIZ001-002-006>008-014>016-023>028-040900-
NORTHWEST WISCONSIN

CITY           SKY/WX    TMP DP  RH WIND       PRES   REMARKS
SUPERIOR ARPT  CLEAR      1 -10  60 W7        29.99R WCI -11
ASHLAND        CLOUDY     3  -6  66 W14G22    29.94R WCI -15
HAYWARD        FAIR       1 -10  60 W9        29.94R WCI -14
SIREN          CLEAR      1  -5  75 W8        30.00R WCI -12
CUMBERLAND     PTCLDY     1  -6  71 W12       29.96R WCI -15
RICE LAKE      PTCLDY     4  -3  71 W10G16    29.99R WCI -11
CHETEK         CLEAR      4  -4  69 MISG      29.98R
LADYSMITH      CLEAR      6  -3  64 W14G21    29.93R WCI -10
EAU CLAIRE     NOT AVBL
MENOMONIE      CLEAR      7  -4  61 W15G24    30.02R WCI -11
NEW RICHMOND   CLEAR      3  -5  68 W12       30.02R WCI -13
OSCEOLA        CLEAR      4  -4  68 W9        30.07R WCI -11
$$

WIZ003>005-009-010-017-018-040900-
NORTH CENTRAL WISCONSIN

CITY           SKY/WX    TMP DP  RH WIND       PRES   REMARKS
MANITOWISH WTR CLEAR      3  -5  68 W9G16     29.80R WCI -12
ARBOR VITAE    CLEAR      6  -3  66 NW9       29.81R WCI  -7
WOODRUFF       CLEAR      6  -3  66 NW9       29.81R WCI  -7
RHINELANDER    CLEAR      6  -4  63 W15G23    29.81R WCI -12
EAGLE RIVER    CLEAR      6  -5  61 W14       29.78R WCI -11
LAND O LAKES   FLURRIES   8   1  73 W9        29.77R WCI  -5
PHILLIPS       PTCLDY     5  -3  71 W6        29.85R WCI  -6
TOMAHAWK       CLEAR      7  -2  67 W9G16     29.84R WCI  -6
MEDFORD        CLEAR      7   0  70 W13       29.86R WCI  -9
MERRILL        PTCLDY    10   0  62 NW9       29.84R WCI  -3
$$

WIZ029-030-035-036-043>047-040900-
CENTRAL WISCONSIN

CITY           SKY/WX    TMP DP  RH WIND       PRES   REMARKS
WAUSAU         CLEAR     10   1  67 NW13      29.85R WCI  -5
MOSINEE        CLEAR     10   5  79 W13       29.86R WCI  -5
MARSHFIELD     CLEAR      9  -1  64 W13G22    29.90R WCI  -7
STEVENS POINT  CLEAR     10   2  69 W10G17    29.88R WCI  -3
WAUPACA        CLEAR     19   7  60 NW14G22   29.87R WCI   5
WAUTOMA        NOT AVBL
WISC RAPIDS    CLEAR     11   1  64 W7        29.92R WCI   0
CAMP DOUGLAS   NOT AVBL
$$

WIZ011>013-019>022-031-037>040-048>050-040900-
NORTHEAST WISCONSIN

CITY           SKY/WX    TMP DP  RH WIND       PRES   REMARKS
ANTIGO         CLEAR      9   0  68 W15G24    29.80R WCI  -8
SHAWANO        CLEAR     19   3  49 NW9       29.84R WCI   8
OCONTO         CLEAR     18   6  58 NW7       29.82R WCI   9
STURGEON BAY   CLEAR     18   5  57 W12G18    29.83R WCI   5
GREEN BAY      CLEAR     19   5  54 W15       29.85R WCI   5
MANITOWOC      NOT AVBL
APPLETON       CLEAR     18   5  57 W16       29.85R WCI   3
CLINTONVILLE   CLEAR     18   5  57 W12       29.85R WCI   5
OSHKOSH        CLEAR     18   7  62 W12       29.87R WCI   5
$$

WIZ032>034-041-042-053>061-040900-
SOUTHWEST WISCONSIN

CITY           SKY/WX    TMP DP  RH WIND       PRES   REMARKS
LA CROSSE      CLEAR     11   1  64 NW14      30.04R WCI  -5
SPARTA         PTCLDY    12   4  70 W7        29.99R WCI   2
VIROQUA        CLEAR      9   2  74 NW14      29.95R WCI  -7
BOSCOBEL       FAIR      13   4  67 W7        30.02R WCI   3
PRAIRIE DU CHI CLEAR     11   2  66 W12       30.03R WCI  -3
PLATTEVILLE    CLEAR     12   6  77 W9        29.96R WCI  -1
$$

WIZ056-057-062-063-064-067-068-040900-
SOUTH CENTRAL WISCONSIN

CITY           SKY/WX    TMP DP  RH WIND       PRES   REMARKS
REEDSBURG      CLEAR     14   7  73 W14       29.93R WCI  -1
BARABOO/DELLS  CLEAR     15   8  73 W9        29.91R WCI   3
LONE ROCK      NOT AVBL
MINERAL POINT  CLEAR     14   9  79 W8        29.93R WCI   3
MADISON        CLEAR     18  10  71 NW10      29.92R WCI   6
MIDDLETON      CLEAR     19  11  68 NW9       29.91R WCI   9
WATERTOWN      MOCLDY    23  16  74 W10       29.87R WCI  12
MONROE         CLEAR     18  12  79 W14       29.90R WCI   4
JANESVILLE     CLEAR     23  18  80 W14       29.89R WCI  11
$$

WIZ051-052-058>065-066-070>072-040900-
SOUTHEAST WISCONSIN

CITY           SKY/WX    TMP DP  RH WIND       PRES   REMARKS
MILWAUKEE      PTCLDY    27  18  69 W9        29.86R WCI  18
WAUKESHA       MOCLDY    23  16  74 NW13      29.86R WCI  11
MILWAUKEE/TIMM MOCLDY    27  16  63 NW15      29.86R WCI  15
RACINE         MOCLDY    28  18  66 W6        29.87R WCI  22
BURLINGTON     CLOUDY    24  18  78 W6        29.86S WCI  17
KENOSHA        PTCLDY    23  20  88 W6        29.85S WCI  16
FOND DU LAC    CLEAR     19   8  62 W10       29.88R WCI   7
SHEBOYGAN      CLEAR     21   8  57 NW12G24   29.85R WCI   9
WEST BEND      CLEAR     23  14  68 W13G18    29.85R WCI  11
JUNEAU         CLEAR     19   9  64 NW7       29.88R WCI  10
$$

LSZ147-162-040900-
LAKE SUPERIOR

STATION/POSITION TIME  TEMP    WIND        PRES    WAVE
                       AIR SEA DIR/SP/G            HT/PER
                 (UTC) (F)     (DEG/KT/KT) (MB)    (FT/S)
DEVILS ISLAND    0700    8     280/ 26/ 31 1013.4R
PORT WING        0708    6     280/ 20/ 26 1013.5
SAXON HARBOR     0700    8     280/  7/ 16 1012.5R
$$

LMZ867-665-643>646-040900-
LAKE MICHIGAN

STATION/POSITION TIME  TEMP    WIND        PRES    WAVE
                       AIR SEA DIR/SP/G            HT/PER
                 (UTC) (F)     (DEG/KT/KT) (MB)    (FT/S)
NORTHPORT PIER   0703   20     290/  6/ 16 1008.5R
SISTER BAY       0713   17     310/ 15/ 17   N/A
KEWAUNEE LAKESHO 0700   24     290/  7/ 11 1008.4R
SHEBOYGAN LAKESH 0700   26     300/ 13/ 16 1011.4R
PORT WASHINGTON  0700   27     280/  5/  9 1011.5R
MILWAUKEE LAKESH 0700   31     290/  7/  9   N/A
KENOSHA   LAKESH 0700   30     260/  7/  9 1011.2R
$$

TC  - TEMPERATURE IN CELSIUS
VSB - VISIBILITY IN STATUTE MILES
WCI - WIND CHILL INDEX
HX  - HEAT INDEX




USA.gov is the U.S. government's official web portal to all federal, state and local government web resources and services.